Simultaneous Nadir Overpasses (SNOs) Predictions

Prediction of SNOs between GOES-16 and LANDSAT-8 Satellite Orbit:

Table of predicted SNOs for the next 14.0 days since TLE Epoch: 1/29/2022
Index Date Time (GOES-16) GOES-16 Lat,Lon LANDSAT-8 Lat,Lon Distance(km) Time Diff (sec)
1 01/30/2022 02:57:34 -0.00, -75.19 0.72, -71.69 397.46 80
2 01/30/2022 15:21:29 0.01, -75.21 0.35, -76.86 186.63 80
3 02/01/2022 15:06:38 0.02, -75.22 -0.29, -73.91 149.56 80
4 02/02/2022 03:30:42 -0.02, -75.20 -0.83, -79.10 442.78 80
5 02/03/2022 14:54:26 0.02, -75.23 -0.88, -70.94 486.80 80
6 02/04/2022 03:18:30 -0.03, -75.21 -0.24, -76.13 105.30 80
7 02/06/2022 03:03:39 -0.03, -75.23 0.42, -73.18 232.97 80
8 02/06/2022 15:27:34 0.03, -75.26 0.71, -78.33 350.45 80
9 02/08/2022 15:15:23 0.03, -75.28 0.05, -75.39 11.59 80
10 02/10/2022 15:00:32 0.02, -75.31 -0.61, -72.44 327.61 80
11 02/11/2022 03:24:36 -0.02, -75.30 -0.50, -77.63 264.01 80
